Location: Ariel
(45.9570°N, 122.5700°W)
Time: 18:38:42
(UTC-07:00)

UKube-1 - Visible Passes

Search period start: 23 October 2020 00:00
Search period end: 01 November 2020 23:00
Orbit: 612 x 619 km, 98.4° (Epoch: 23 October)

Date Brightness Start Highest point End Pass type
(mag) Time Alt. Az. Time Alt. Az. Time Alt. Az.
23 Oct ? 20:36:49 23° SSW 20:36:49 23° SSW 20:38:28 10° SSW visible
23 Oct?22:13:55WSW22:13:55WSW22:04:42Nvisible
24 Oct ? 05:52:33 10° E 05:54:45 14° ENE 05:56:57 10° NNE visible
24 Oct ? 20:53:22 16° SSW 20:53:22 16° SSW 20:54:13 10° SSW visible
25 Oct ? 06:07:26 10° ESE 06:10:27 19° ENE 06:13:29 10° NNE visible
25 Oct ? 19:32:46 11° SE 19:32:46 11° SE 19:33:04 10° SE visible
26 Oct ? 06:22:39 10° ESE 06:26:12 26° ENE 06:29:46 10° N visible
26 Oct ? 19:49:12 12° SSE 19:49:12 12° SSE 19:49:33 10° SSE visible
27 Oct ? 06:38:03 10° SE 06:41:58 36° ENE 06:45:55 10° N visible
27 Oct ? 20:05:36 11° S 20:05:36 11° S 20:05:48 10° S visible
28 Oct ? 06:53:38 10° SSE 06:57:46 52° ENE 07:01:57 10° N visible
29 Oct ? 07:09:21 10° SSE 07:13:37 76° ENE 07:17:55 10° N visible
30 Oct ? 05:52:05 10° E 05:54:07 13° ENE 05:56:09 10° NNE visible
31 Oct ? 06:06:54 10° ESE 06:09:48 18° ENE 06:12:43 10° NNE visible
01 Nov ? 05:22:03 10° ESE 05:25:32 25° ENE 05:29:02 10° N visible
